| time (UTC) | temp F | wind direction | speed MPH | gust MPH | rain 1hr in | rain 24hr in | rain mn in | humidity % | barometer mb |
| 20260507064657 | 42 | 163 | 0.0 | 1.0 | 0.01 | 0.57 | 0.01 | 100 | 1003.1 |
| 20260507064154 | 42 | 163 | 0.0 | 1.0 | 0.01 | 0.57 | 0.01 | 100 | 1003.3 |
| 20260507063655 | 42 | 204 | 0.0 | 1.0 | 0.01 | 0.57 | 0.01 | 100 | 1003.4 |
| 20260507063152 | 42 | 215 | 0.0 | 3.0 | 0.01 | 0.57 | 0.01 | 100 | 1003.3 |
| 20260507062652 | 43 | 95 | 0.0 | 3.0 | 0.01 | 0.57 | 0.01 | 100 | 1003.1 |
| 20260507062151 | 43 | 113 | 0.0 | 3.0 | 0.00 | 0.56 | 0.00 | 100 | 1003.1 |
| 20260507061922 | 42 | 111 | 1.0 | 3.0 | 0.00 | 0.56 | 0.00 | 100 | 1003.2 |
| 20260507061150 | 42 | 99 | 0.0 | 2.0 | 0.00 | 0.56 | 0.00 | 100 | 1003.5 |
| 20260507060651 | 42 | 216 | 0.0 | 0.0 | 0.00 | 0.56 | 0.00 | 100 | 1003.6 |
| 20260507060148 | 42 | 219 | 0.0 | 0.0 | 0.00 | 0.56 | 0.00 | 100 | 1003.9 |
| 20260507055648 | 42 | 222 | 0.0 | 0.0 | 0.00 | 0.56 | 0.00 | 100 | 1003.8 |
| 20260507055148 | 42 | 213 | 0.0 | 0.0 | 0.00 | 0.56 | 0.00 | 100 | 1003.7 |
| 20260507054919 | 42 | 178 | 0.0 | 0.0 | 0.00 | 0.56 | 0.00 | 100 | 1004.0 |
| 20260507054148 | 42 | 178 | 0.0 | 0.0 | 0.00 | 0.56 | 0.00 | 100 | 1004.0 |
| 20260507053648 | 42 | 208 | 0.0 | 0.0 | 0.00 | 0.56 | 0.00 | 100 | 1004.2 |
| 20260507053149 | 42 | 203 | 0.0 | 0.0 | 0.00 | 0.56 | 0.00 | 100 | 1004.0 |
| 20260507052648 | 42 | 203 | 0.0 | 0.0 | 0.00 | 0.56 | 0.00 | 100 | 1004.1 |
| 20260507052420 | 42 | 203 | 0.0 | 0.0 | 0.00 | 0.56 | 0.00 | 100 | 1004.5 |
| 20260507051920 | 42 | 203 | 0.0 | 0.0 | 0.00 | 0.56 | 0.00 | 99 | 1004.5 |
| 20260507051148 | 42 | 203 | 0.0 | 0.0 | 0.00 | 0.56 | 0.00 | 99 | 1004.4 |
| 20260507050648 | 42 | 203 | 0.0 | 0.0 | 0.00 | 0.56 | 0.00 | 99 | 1004.5 |
| 20260507050148 | 43 | 203 | 0.0 | 0.0 | 0.00 | 0.56 | 0.00 | 99 | 1004.5 |
| 20260507045920 | 43 | 203 | 0.0 | 0.0 | 0.00 | 0.57 | 0.00 | 99 | 1004.2 |
| 20260507045148 | 43 | 203 | 0.0 | 0.0 | 0.00 | 0.57 | 0.00 | 100 | 1004.0 |
| 20260507044649 | 43 | 203 | 0.0 | 0.0 | 0.00 | 0.57 | 0.00 | 100 | 1004.2 |
| 20260507044145 | 43 | 263 | 0.0 | 0.0 | 0.00 | 0.57 | 0.00 | 99 | 1004.3 |
| 20260507043645 | 43 | 281 | 0.0 | 0.0 | 0.00 | 0.57 | 0.00 | 99 | 1004.0 |
| 20260507043144 | 43 | 281 | 0.0 | 0.0 | 0.00 | 0.57 | 0.00 | 99 | 1004.1 |
| 20260507042641 | 44 | 284 | 0.0 | 0.0 | 0.00 | 0.57 | 0.00 | 99 | 1004.2 |
| 20260507042140 | 44 | 286 | 0.0 | 0.0 | 0.00 | 0.57 | 0.00 | 99 | 1004.1 |
| 20260507041640 | 44 | 286 | 0.0 | 0.0 | 0.00 | 0.57 | 0.00 | 99 | 1003.8 |
| 20260507041138 | 44 | 286 | 0.0 | 0.0 | 0.00 | 0.57 | 0.00 | 99 | 1003.8 |
| 20260507040637 | 44 | 286 | 0.0 | 0.0 | 0.00 | 0.57 | 0.00 | 99 | 1004.0 |
| 20260507040137 | 44 | 286 | 0.0 | 0.0 | 0.00 | 0.57 | 0.00 | 99 | 1004.2 |
| 20260507035636 | 44 | 286 | 0.0 | 0.0 | 0.00 | 0.57 | 0.57 | 99 | 1004.3 |
| 20260507035135 | 44 | 286 | 0.0 | 0.0 | 0.00 | 0.57 | 0.57 | 99 | 1004.4 |
| 20260507034635 | 44 | 286 | 0.0 | 0.0 | 0.00 | 0.57 | 0.57 | 99 | 1004.2 |
| 20260507034135 | 44 | 309 | 0.0 | 0.0 | 0.00 | 0.57 | 0.57 | 99 | 1004.1 |
| 20260507033632 | 45 | 309 | 0.0 | 0.0 | 0.00 | 0.57 | 0.57 | 99 | 1004.1 |
| 20260507033133 | 45 | 309 | 0.0 | 0.0 | 0.00 | 0.57 | 0.57 | 99 | 1004.4 |
| 20260507032630 | 45 | 309 | 0.0 | 0.0 | 0.00 | 0.57 | 0.57 | 99 | 1004.1 |
| 20260507032131 | 45 | 309 | 0.0 | 0.0 | 0.00 | 0.57 | 0.57 | 99 | 1004.2 |
| 20260507031901 | 45 | 309 | 0.0 | 0.0 | 0.00 | 0.57 | 0.57 | 99 | 1004.1 |
| 20260507031131 | 45 | 65 | 0.0 | 0.0 | 0.00 | 0.57 | 0.57 | 98 | 1004.4 |
| 20260507030635 | 45 | 47 | 1.0 | 6.0 | 0.00 | 0.57 | 0.57 | 98 | 1004.3 |
| 20260507030630 | 45 | 47 | 0.0 | 1.0 | 0.00 | 0.57 | 0.57 | 98 | 1004.2 |
| 20260507025631 | 45 | 76 | 1.0 | 6.0 | 0.00 | 0.57 | 0.57 | 98 | 1004.2 |
| 20260507025130 | 45 | 35 | 0.0 | 1.0 | 0.01 | 0.57 | 0.57 | 98 | 1004.3 |
| 20260507024631 | 46 | 52 | 0.0 | 1.0 | 0.01 | 0.57 | 0.57 | 98 | 1004.1 |
| 20260507024130 | 46 | 52 | 0.0 | 1.0 | 0.01 | 0.57 | 0.57 | 98 | 1004.1 |
| 20260507023629 | 46 | 54 | 0.0 | 1.0 | 0.01 | 0.57 | 0.57 | 98 | 1004.1 |
| 20260507023128 | 46 | 42 | 0.0 | 1.0 | 0.01 | 0.57 | 0.57 | 98 | 1004.1 |
| 20260507022628 | 46 | 45 | 0.0 | 2.0 | 0.01 | 0.57 | 0.57 | 98 | 1004.1 |
| 20260507022128 | 46 | 45 | 1.0 | 3.0 | 0.01 | 0.57 | 0.57 | 97 | 1004.1 |
| 20260507021629 | 46 | 29 | 1.0 | 3.0 | 0.01 | 0.57 | 0.57 | 97 | 1004.0 |
| 20260507021128 | 47 | 40 | 1.0 | 2.0 | 0.01 | 0.57 | 0.57 | 97 | 1004.1 |
| 20260507020628 | 47 | 31 | 0.0 | 2.0 | 0.01 | 0.57 | 0.57 | 97 | 1004.1 |
| 20260507020405 | 47 | 74 | 0.0 | 3.0 | 0.01 | 0.57 | 0.57 | 97 | 1004.1 |
| 20260507020128 | 47 | 37 | 1.0 | 3.0 | 0.01 | 0.57 | 0.57 | 97 | 1004.1 |
| 20260507015126 | 47 | 327 | 0.0 | 1.0 | 0.00 | 0.56 | 0.56 | 97 | 1004.1 |
| 20260507014858 | 48 | 307 | 0.0 | 1.0 | 0.00 | 0.56 | 0.56 | 96 | 1004.0 |
| 20260507014355 | 48 | 20 | 0.0 | 4.0 | 0.00 | 0.56 | 0.56 | 96 | 1004.1 |
| 20260507013629 | 48 | 343 | 1.0 | 4.0 | 0.00 | 0.56 | 0.56 | 95 | 1003.9 |
| 20260507013624 | 48 | 304 | 1.0 | 4.0 | 0.00 | 0.56 | 0.56 | 95 | 1004.0 |
| 20260507012621 | 49 | 20 | 2.0 | 5.0 | 0.00 | 0.56 | 0.56 | 95 | 1003.9 |
| 20260507012118 | 49 | 0 | 1.0 | 5.0 | 0.00 | 0.56 | 0.56 | 95 | 1003.8 |
| 20260507011618 | 49 | 315 | 0.0 | 7.0 | 0.00 | 0.56 | 0.56 | 97 | 1003.7 |
| 20260507011348 | 49 | 45 | 0.0 | 7.0 | 0.00 | 0.56 | 0.56 | 97 | 1003.5 |
| 20260507010617 | 49 | 60 | 0.0 | 2.0 | 0.00 | 0.56 | 0.56 | 97 | 1003.4 |
| 20260507010116 | 50 | 149 | 1.0 | 3.0 | 0.00 | 0.56 | 0.56 | 97 | 1003.3 |
| 20260507005848 | 50 | 35 | 1.0 | 4.0 | 0.00 | 0.56 | 0.56 | 97 | 1003.1 |
| 20260507005116 | 50 | 135 | 1.0 | 4.0 | 0.00 | 0.56 | 0.56 | 97 | 1003.2 |
| 20260507004848 | 50 | 338 | 2.0 | 5.0 | 0.00 | 0.56 | 0.56 | 96 | 1003.0 |
| 20260507004116 | 51 | 352 | 2.0 | 6.0 | 0.00 | 0.56 | 0.56 | 96 | 1003.0 |
| 20260507003616 | 51 | 70 | 2.0 | 7.0 | 0.00 | 0.56 | 0.56 | 96 | 1002.8 |
| 20260507003116 | 51 | 104 | 2.0 | 7.0 | 0.00 | 0.57 | 0.56 | 96 | 1002.8 |
| 20260507002618 | 52 | 341 | 1.0 | 6.0 | 0.00 | 0.57 | 0.56 | 97 | 1002.7 |
| 20260507002117 | 53 | 312 | 1.0 | 3.0 | 0.00 | 0.57 | 0.56 | 98 | 1002.8 |
| 20260507001614 | 53 | 28 | 1.0 | 5.0 | 0.00 | 0.57 | 0.56 | 98 | 1002.5 |
| 20260507001344 | 53 | 70 | 1.0 | 5.0 | 0.00 | 0.57 | 0.56 | 98 | 1002.3 |
| 20260507000614 | 53 | 172 | 0.0 | 2.0 | 0.00 | 0.57 | 0.56 | 99 | 1002.1 |
| 20260507000114 | 53 | 123 | 0.0 | 0.0 | 0.00 | 0.57 | 0.56 | 99 | 1001.9 |
| 20260506235614 | 53 | 109 | 0.0 | 1.0 | 0.01 | 0.57 | 0.56 | 98 | 1001.7 |
| 20260506235115 | 54 | 115 | 1.0 | 3.0 | 0.01 | 0.57 | 0.56 | 98 | 1001.7 |
| 20260506234614 | 54 | 154 | 1.0 | 3.0 | 0.01 | 0.57 | 0.56 | 98 | 1001.6 |
| 20260506234116 | 55 | 127 | 1.0 | 8.0 | 0.02 | 0.57 | 0.56 | 98 | 1001.6 |
| 20260506233845 | 55 | 104 | 2.0 | 8.0 | 0.04 | 0.57 | 0.56 | 97 | 1001.6 |
| 20260506233115 | 56 | 50 | 1.0 | 4.0 | 0.07 | 0.57 | 0.56 | 98 | 1001.4 |
| 20260506232614 | 56 | 68 | 1.0 | 6.0 | 0.08 | 0.57 | 0.56 | 98 | 1001.3 |
| 20260506232113 | 57 | 68 | 2.0 | 6.0 | 0.08 | 0.57 | 0.56 | 99 | 1001.2 |
| 20260506231612 | 57 | 142 | 3.0 | 10.0 | 0.08 | 0.57 | 0.56 | 99 | 1001.1 |
| 20260506231342 | 58 | 137 | 2.0 | 10.0 | 0.08 | 0.57 | 0.56 | 100 | 1000.9 |
| 20260506230843 | 58 | 255 | 1.0 | 2.0 | 0.08 | 0.57 | 0.56 | 100 | 1000.8 |
| 20260506230113 | 58 | 126 | 0.0 | 2.0 | 0.08 | 0.57 | 0.56 | 100 | 1000.7 |
| 20260506225612 | 58 | 277 | 0.0 | 2.0 | 0.07 | 0.56 | 0.55 | 100 | 1000.5 |
| 20260506225343 | 58 | 209 | 1.0 | 3.0 | 0.07 | 0.56 | 0.55 | 100 | 1000.4 |
| 20260506224612 | 58 | 192 | 1.0 | 4.0 | 0.06 | 0.55 | 0.55 | 100 | 1000.3 |
| 20260506224110 | 58 | 225 | 0.0 | 4.0 | 0.06 | 0.55 | 0.54 | 100 | 1000.3 |
| 20260506223610 | 58 | 263 | 0.0 | 2.0 | 0.04 | 0.53 | 0.53 | 100 | 1000.4 |
| 20260506223110 | 59 | 231 | 0.0 | 2.0 | 0.01 | 0.50 | 0.50 | 100 | 1000.4 |
| 20260506222610 | 59 | 213 | 0.0 | 2.0 | 0.00 | 0.49 | 0.48 | 100 | 1000.3 |
| 20260506222110 | 59 | 160 | 0.0 | 2.0 | 0.00 | 0.49 | 0.48 | 100 | 1000.2 |
| 20260506221610 | 59 | 146 | 0.0 | 2.0 | 0.00 | 0.49 | 0.48 | 99 | 1000.2 |
| 20260506221110 | 59 | 169 | 0.0 | 5.0 | 0.00 | 0.50 | 0.48 | 99 | 1000.3 |
| 20260506220611 | 59 | 218 | 0.0 | 5.0 | 0.00 | 0.50 | 0.48 | 99 | 1000.3 |
| 20260506220109 | 59 | 108 | 0.0 | 3.0 | 0.00 | 0.50 | 0.48 | 99 | 1000.4 |
| 20260506215608 | 59 | 202 | 0.0 | 4.0 | 0.00 | 0.50 | 0.48 | 100 | 1000.3 |
| 20260506215337 | 59 | 167 | 0.0 | 4.0 | 0.00 | 0.50 | 0.48 | 99 | 1000.3 |
| 20260506214606 | 59 | 187 | 0.0 | 3.0 | 0.01 | 0.50 | 0.48 | 99 | 1000.3 |
| 20260506214337 | 59 | 269 | 0.0 | 3.0 | 0.01 | 0.50 | 0.48 | 99 | 1000.3 |
| 20260506213606 | 59 | 266 | 1.0 | 5.0 | 0.01 | 0.50 | 0.48 | 99 | 1000.3 |
| 20260506213106 | 59 | 213 | 1.0 | 5.0 | 0.01 | 0.50 | 0.48 | 99 | 1000.3 |
| 20260506212606 | 59 | 132 | 1.0 | 7.0 | 0.01 | 0.50 | 0.48 | 99 | 1000.3 |
| 20260506212106 | 59 | 146 | 1.0 | 7.0 | 0.01 | 0.50 | 0.48 | 99 | 1000.1 |
| 20260506211605 | 59 | 240 | 1.0 | 6.0 | 0.01 | 0.50 | 0.48 | 99 | 1000.3 |
| 20260506211104 | 59 | 229 | 1.0 | 8.0 | 0.01 | 0.50 | 0.48 | 100 | 1000.3 |
| 20260506210604 | 59 | 222 | 1.0 | 8.0 | 0.02 | 0.50 | 0.48 | 99 | 1000.2 |
| 20260506210104 | 59 | 270 | 1.0 | 6.0 | 0.02 | 0.50 | 0.48 | 100 | 1000.3 |
| 20260506205604 | 59 | 219 | 1.0 | 7.0 | 0.02 | 0.50 | 0.48 | 100 | 1000.3 |
| 20260506205104 | 59 | 105 | 2.0 | 9.0 | 0.02 | 0.50 | 0.48 | 100 | 1000.3 |
| 20260506204604 | 59 | 108 | 1.0 | 9.0 | 0.01 | 0.49 | 0.47 | 100 | 1000.3 |
| 20260506204104 | 59 | 41 | 1.0 | 7.0 | 0.01 | 0.49 | 0.47 | 100 | 1000.3 |
| 20260506203601 | 59 | 199 | 1.0 | 5.0 | 0.01 | 0.49 | 0.47 | 100 | 1000.4 |
| 20260506203102 | 59 | 122 | 1.0 | 5.0 | 0.01 | 0.49 | 0.47 | 100 | 1000.4 |
| 20260506202602 | 59 | 205 | 1.0 | 5.0 | 0.01 | 0.49 | 0.47 | 100 | 1000.5 |
| 20260506202100 | 59 | 337 | 1.0 | 4.0 | 0.01 | 0.49 | 0.47 | 100 | 1000.4 |
| 20260506201600 | 59 | 172 | 1.0 | 5.0 | 0.01 | 0.49 | 0.47 | 100 | 1000.5 |
| 20260506201058 | 59 | 217 | 1.0 | 5.0 | 0.01 | 0.49 | 0.47 | 100 | 1000.5 |
| 20260506200557 | 59 | 170 | 1.0 | 4.0 | 0.01 | 0.48 | 0.46 | 100 | 1000.7 |
| 20260506200058 | 59 | 213 | 1.0 | 4.0 | 0.01 | 0.48 | 0.46 | 100 | 1000.7 |
| 20260506195830 | 59 | 107 | 1.0 | 3.0 | 0.01 | 0.48 | 0.46 | 100 | 1000.7 |
| 20260506195103 | 59 | 201 | 1.0 | 4.0 | 0.02 | 0.48 | 0.46 | 100 | 1000.8 |
| 20260506195057 | 59 | 195 | 1.0 | 3.0 | 0.02 | 0.48 | 0.46 | 100 | 1000.8 |
| 20260506194058 | 59 | 142 | 1.0 | 5.0 | 0.03 | 0.48 | 0.46 | 99 | 1000.8 |
| 20260506193828 | 59 | 244 | 1.0 | 5.0 | 0.04 | 0.48 | 0.46 | 99 | 1000.9 |
| 20260506193058 | 59 | 200 | 1.0 | 5.0 | 0.05 | 0.48 | 0.46 | 99 | 1000.9 |
| 20260506192557 | 59 | 116 | 1.0 | 4.0 | 0.05 | 0.48 | 0.46 | 99 | 1001.0 |
| 20260506192328 | 59 | 159 | 0.0 | 4.0 | 0.07 | 0.48 | 0.46 | 99 | 1001.0 |
| 20260506191557 | 59 | 187 | 1.0 | 6.0 | 0.09 | 0.48 | 0.46 | 99 | 1001.1 |
| 20260506191326 | 59 | 182 | 2.0 | 7.0 | 0.11 | 0.48 | 0.46 | 99 | 1001.0 |
| 20260506190825 | 59 | 124 | 1.0 | 7.0 | 0.12 | 0.47 | 0.45 | 99 | 1001.0 |
| 20260506190325 | 58 | 123 | 1.0 | 7.0 | 0.14 | 0.47 | 0.45 | 99 | 1001.2 |
| 20260506185554 | 58 | 171 | 1.0 | 7.0 | 0.15 | 0.47 | 0.45 | 100 | 1001.2 |
| 20260506185054 | 58 | 222 | 1.0 | 5.0 | 0.16 | 0.46 | 0.44 | 99 | 1001.3 |
| 20260506184552 | 58 | 148 | 0.0 | 5.0 | 0.17 | 0.46 | 0.44 | 100 | 1001.3 |
| 20260506184051 | 58 | 116 | 0.0 | 3.0 | 0.17 | 0.45 | 0.43 | 99 | 1001.3 |
| 20260506183550 | 58 | 159 | 0.0 | 3.0 | 0.17 | 0.44 | 0.42 | 99 | 1001.4 |
| 20260506183051 | 58 | 348 | 0.0 | 3.0 | 0.17 | 0.43 | 0.41 | 99 | 1001.4 |
| 20260506182550 | 58 | 216 | 0.0 | 2.0 | 0.18 | 0.43 | 0.41 | 99 | 1001.5 |
| 20260506182047 | 58 | 147 | 0.0 | 4.0 | 0.17 | 0.41 | 0.39 | 99 | 1001.6 |
| 20260506181548 | 58 | 207 | 1.0 | 4.0 | 0.17 | 0.39 | 0.37 | 99 | 1001.9 |
| 20260506181319 | 58 | 108 | 1.0 | 5.0 | 0.16 | 0.37 | 0.35 | 99 | 1001.9 |
| 20260506180545 | 58 | 102 | 0.0 | 5.0 | 0.15 | 0.35 | 0.33 | 99 | 1002.0 |
| 20260506180046 | 58 | 220 | 1.0 | 3.0 | 0.15 | 0.33 | 0.31 | 99 | 1002.1 |
| 20260506175546 | 58 | 217 | 1.0 | 4.0 | 0.16 | 0.32 | 0.30 | 99 | 1002.1 |
| 20260506175045 | 58 | 170 | 0.0 | 5.0 | 0.15 | 0.30 | 0.28 | 99 | 1002.1 |
| 20260506174546 | 58 | 246 | 0.0 | 5.0 | 0.15 | 0.29 | 0.27 | 99 | 1002.2 |
| 20260506174043 | 58 | 196 | 0.0 | 4.0 | 0.15 | 0.28 | 0.26 | 99 | 1002.5 |
| 20260506173544 | 58 | 112 | 1.0 | 4.0 | 0.15 | 0.27 | 0.25 | 99 | 1002.7 |
| 20260506173043 | 58 | 224 | 1.0 | 3.0 | 0.15 | 0.26 | 0.24 | 99 | 1002.7 |
| 20260506172544 | 58 | 243 | 1.0 | 4.0 | 0.15 | 0.25 | 0.23 | 99 | 1002.9 |
| 20260506172043 | 58 | 237 | 1.0 | 4.0 | 0.15 | 0.24 | 0.22 | 99 | 1002.9 |
| 20260506171814 | 58 | 247 | 1.0 | 4.0 | 0.14 | 0.22 | 0.21 | 99 | 1003.1 |
| 20260506171043 | 58 | 187 | 1.0 | 6.0 | 0.13 | 0.21 | 0.19 | 99 | 1003.0 |
| 20260506170544 | 58 | 267 | 1.0 | 6.0 | 0.12 | 0.20 | 0.18 | 99 | 1003.1 |
| 20260506170314 | 58 | 217 | 1.0 | 12.0 | 0.11 | 0.18 | 0.16 | 98 | 1003.0 |
| 20260506165543 | 58 | 232 | 2.0 | 12.0 | 0.09 | 0.16 | 0.15 | 98 | 1003.1 |
| 20260506165043 | 58 | 145 | 2.0 | 7.0 | 0.09 | 0.15 | 0.13 | 98 | 1003.0 |
| 20260506164815 | 58 | 219 | 1.0 | 7.0 | 0.09 | 0.14 | 0.12 | 98 | 1003.0 |
| 20260506164652 | 58 | 205 | 1.0 | 6.0 | 0.08 | 0.13 | 0.11 | 98 | 1003.0 |
| 20260506163543 | 58 | 183 | 1.0 | 3.0 | 0.07 | 0.12 | 0.10 | 98 | 1003.0 |
| 20260506163043 | 59 | 271 | 1.0 | 3.0 | 0.06 | 0.11 | 0.09 | 98 | 1003.0 |
| 20260506162543 | 59 | 221 | 1.0 | 3.0 | 0.05 | 0.10 | 0.08 | 98 | 1003.0 |
| 20260506162044 | 59 | 191 | 0.0 | 3.0 | 0.05 | 0.09 | 0.07 | 97 | 1003.1 |
| 20260506161544 | 59 | 132 | 0.0 | 4.0 | 0.04 | 0.08 | 0.07 | 98 | 1003.2 |
| 20260506161043 | 59 | 201 | 1.0 | 4.0 | 0.04 | 0.08 | 0.06 | 97 | 1003.2 |
| 20260506160543 | 59 | 233 | 1.0 | 3.0 | 0.04 | 0.08 | 0.06 | 97 | 1003.2 |
| 20260506160044 | 59 | 173 | 1.0 | 3.0 | 0.04 | 0.07 | 0.05 | 97 | 1003.2 |
| 20260506155543 | 59 | 108 | 0.0 | 2.0 | 0.04 | 0.07 | 0.05 | 97 | 1003.3 |
| 20260506155044 | 59 | 229 | 0.0 | 2.0 | 0.03 | 0.06 | 0.04 | 97 | 1003.4 |
| 20260506154543 | 59 | 288 | 0.0 | 0.0 | 0.02 | 0.05 | 0.04 | 96 | 1003.3 |
| 20260506154044 | 59 | 173 | 0.0 | 0.0 | 0.02 | 0.05 | 0.03 | 96 | 1003.4 |
| 20260506153541 | 59 | 225 | 0.0 | 1.0 | 0.02 | 0.05 | 0.03 | 95 | 1003.4 |
| 20260506153313 | 59 | 176 | 0.0 | 2.0 | 0.02 | 0.05 | 0.03 | 95 | 1003.6 |
| 20260506152541 | 59 | 279 | 0.0 | 3.0 | 0.02 | 0.05 | 0.03 | 94 | 1003.8 |
| 20260506152041 | 59 | 198 | 0.0 | 3.0 | 0.01 | 0.04 | 0.02 | 94 | 1003.8 |
| 20260506151539 | 59 | 246 | 1.0 | 4.0 | 0.01 | 0.04 | 0.02 | 94 | 1003.8 |
| 20260506151311 | 59 | 248 | 1.0 | 4.0 | 0.01 | 0.04 | 0.02 | 93 | 1003.9 |
| 20260506150808 | 60 | 217 | 1.0 | 4.0 | 0.01 | 0.04 | 0.02 | 92 | 1003.9 |
| 20260506150033 | 60 | 215 | 2.0 | 5.0 | 0.00 | 0.03 | 0.01 | 91 | 1004.1 |
| 20260506145534 | 60 | 225 | 2.0 | 5.0 | 0.00 | 0.03 | 0.01 | 90 | 1004.2 |
| 20260506145033 | 60 | 217 | 2.0 | 7.0 | 0.00 | 0.03 | 0.01 | 89 | 1004.1 |
| 20260506144803 | 60 | 217 | 2.0 | 7.0 | 0.00 | 0.03 | 0.01 | 89 | 1004.2 |
| 20260506144029 | 60 | 317 | 2.0 | 5.0 | 0.00 | 0.03 | 0.01 | 88 | 1004.2 |
| 20260506143529 | 60 | 279 | 1.0 | 5.0 | 0.00 | 0.03 | 0.01 | 88 | 1004.1 |
| 20260506143300 | 60 | 217 | 1.0 | 3.0 | 0.00 | 0.03 | 0.01 | 88 | 1004.0 |
| 20260506142529 | 60 | 334 | 1.0 | 4.0 | 0.00 | 0.03 | 0.01 | 88 | 1004.0 |
| 20260506142030 | 60 | 297 | 0.0 | 4.0 | 0.00 | 0.03 | 0.01 | 87 | 1003.9 |
| 20260506141529 | 60 | 212 | 0.0 | 1.0 | 0.00 | 0.03 | 0.01 | 88 | 1003.8 |
| 20260506141029 | 60 | 172 | 0.0 | 1.0 | 0.00 | 0.03 | 0.01 | 87 | 1003.8 |
| 20260506140528 | 60 | 175 | 0.0 | 2.0 | 0.00 | 0.03 | 0.01 | 88 | 1003.8 |
| 20260506140028 | 60 | 209 | 0.0 | 2.0 | 0.00 | 0.03 | 0.01 | 88 | 1003.9 |
| 20260506135527 | 60 | 272 | 1.0 | 5.0 | 0.00 | 0.03 | 0.01 | 88 | 1003.8 |
| 20260506135306 | 60 | 151 | 1.0 | 4.0 | 0.00 | 0.03 | 0.01 | 88 | 1003.8 |
| 20260506135027 | 60 | 266 | 1.0 | 5.0 | 0.00 | 0.03 | 0.01 | 88 | 1003.7 |
| 20260506134027 | 60 | 234 | 1.0 | 4.0 | 0.00 | 0.03 | 0.01 | 89 | 1003.8 |
| 20260506133759 | 59 | 285 | 1.0 | 3.0 | 0.00 | 0.03 | 0.01 | 90 | 1003.8 |
| 20260506133025 | 58 | 225 | 1.0 | 3.0 | 0.00 | 0.03 | 0.01 | 91 | 1003.8 |
| 20260506132525 | 58 | 217 | 1.0 | 3.0 | 0.00 | 0.03 | 0.01 | 91 | 1003.9 |
| 20260506132025 | 58 | 222 | 1.0 | 3.0 | 0.00 | 0.03 | 0.01 | 91 | 1004.0 |
| 20260506131524 | 58 | 326 | 1.0 | 4.0 | 0.00 | 0.03 | 0.01 | 91 | 1003.9 |
| 20260506131025 | 57 | 195 | 1.0 | 4.0 | 0.00 | 0.03 | 0.01 | 92 | 1004.1 |
| 20260506130525 | 57 | 243 | 1.0 | 4.0 | 0.00 | 0.03 | 0.01 | 92 | 1004.2 |
| 20260506130025 | 57 | 197 | 1.0 | 4.0 | 0.00 | 0.03 | 0.01 | 92 | 1004.3 |
| 20260506125528 | 57 | 174 | 1.0 | 4.0 | 0.00 | 0.03 | 0.01 | 93 | 1004.5 |
| 20260506125523 | 57 | 239 | 1.0 | 4.0 | 0.00 | 0.03 | 0.01 | 93 | 1004.4 |
| 20260506124523 | 57 | 254 | 1.0 | 4.0 | 0.00 | 0.03 | 0.01 | 93 | 1004.6 |
| 20260506124254 | 56 | 258 | 1.0 | 7.0 | 0.00 | 0.03 | 0.01 | 93 | 1004.5 |
| 20260506123523 | 56 | 219 | 1.0 | 7.0 | 0.00 | 0.03 | 0.01 | 93 | 1004.5 |
| 20260506123022 | 56 | 222 | 1.0 | 6.0 | 0.00 | 0.03 | 0.01 | 94 | 1004.6 |
| 20260506122521 | 56 | 255 | 1.0 | 6.0 | 0.00 | 0.03 | 0.01 | 95 | 1004.6 |
| 20260506122022 | 56 | 253 | 1.0 | 6.0 | 0.00 | 0.03 | 0.01 | 95 | 1004.6 |
| 20260506121521 | 56 | 210 | 1.0 | 6.0 | 0.00 | 0.03 | 0.01 | 95 | 1004.6 |
| 20260506121021 | 55 | 273 | 1.0 | 7.0 | 0.00 | 0.03 | 0.01 | 95 | 1004.4 |
| 20260506120521 | 55 | 226 | 1.0 | 7.0 | 0.00 | 0.03 | 0.01 | 95 | 1003.9 |
| 20260506120021 | 55 | 238 | 1.0 | 4.0 | 0.00 | 0.03 | 0.01 | 95 | 1003.8 |
| 20260506115522 | 55 | 221 | 1.0 | 6.0 | 0.00 | 0.03 | 0.01 | 96 | 1004.2 |
| 20260506115021 | 55 | 203 | 1.0 | 6.0 | 0.00 | 0.03 | 0.01 | 96 | 1004.4 |
| 20260506114521 | 55 | 209 | 2.0 | 5.0 | 0.00 | 0.03 | 0.01 | 96 | 1004.3 |
| 20260506114021 | 55 | 208 | 2.0 | 5.0 | 0.00 | 0.03 | 0.01 | 96 | 1004.4 |
| 20260506113521 | 55 | 232 | 1.0 | 4.0 | 0.00 | 0.03 | 0.01 | 97 | 1004.5 |
| 20260506113251 | 54 | 239 | 1.0 | 5.0 | 0.00 | 0.03 | 0.01 | 97 | 1004.5 |
| 20260506112521 | 54 | 217 | 2.0 | 9.0 | 0.00 | 0.03 | 0.01 | 97 | 1004.5 |
| 20260506112021 | 54 | 223 | 2.0 | 9.0 | 0.00 | 0.03 | 0.01 | 97 | 1004.6 |
| 20260506111521 | 54 | 219 | 1.0 | 7.0 | 0.00 | 0.03 | 0.01 | 98 | 1004.5 |
| 20260506111022 | 54 | 204 | 1.0 | 7.0 | 0.00 | 0.03 | 0.01 | 99 | 1004.3 |
| 20260506110521 | 54 | 222 | 2.0 | 5.0 | 0.00 | 0.03 | 0.01 | 99 | 1004.0 |
| 20260506110021 | 53 | 239 | 1.0 | 10.0 | 0.00 | 0.03 | 0.01 | 100 | 1004.2 |
| 20260506105521 | 53 | 208 | 1.0 | 10.0 | 0.00 | 0.03 | 0.01 | 100 | 1004.2 |
| 20260506105021 | 53 | 291 | 1.0 | 4.0 | 0.00 | 0.03 | 0.01 | 100 | 1004.3 |
| 20260506104522 | 53 | 142 | 1.0 | 4.0 | 0.00 | 0.03 | 0.01 | 100 | 1004.3 |
| 20260506104022 | 52 | 235 | 1.0 | 3.0 | 0.00 | 0.03 | 0.01 | 100 | 1004.3 |
| 20260506103520 | 52 | 200 | 1.0 | 4.0 | 0.00 | 0.03 | 0.01 | 100 | 1004.3 |
| 20260506103022 | 51 | 212 | 0.0 | 4.0 | 0.00 | 0.03 | 0.01 | 100 | 1004.3 |
| 20260506102757 | 49 | 142 | 0.0 | 3.0 | 0.00 | 0.03 | 0.01 | 100 | 1004.3 |
| 20260506102521 | 50 | 255 | 0.0 | 3.0 | 0.00 | 0.03 | 0.01 | 100 | 1004.1 |
| 20260506101521 | 49 | 148 | 0.0 | 0.0 | 0.00 | 0.03 | 0.01 | 100 | 1004.1 |
| 20260506101019 | 48 | 134 | 0.0 | 0.0 | 0.00 | 0.03 | 0.01 | 100 | 1004.1 |
| 20260506100519 | 48 | 130 | 0.0 | 0.0 | 0.00 | 0.03 | 0.01 | 100 | 1004.1 |
| 20260506100019 | 48 | 100 | 0.0 | 0.0 | 0.00 | 0.03 | 0.01 | 100 | 1004.2 |
| 20260506095519 | 48 | 209 | 0.0 | 0.0 | 0.00 | 0.03 | 0.01 | 100 | 1004.1 |
| 20260506095018 | 49 | 209 | 0.0 | 0.0 | 0.00 | 0.03 | 0.01 | 100 | 1004.2 |
| 20260506094520 | 49 | 209 | 0.0 | 0.0 | 0.00 | 0.03 | 0.01 | 100 | 1004.2 |
| 20260506094019 | 49 | 209 | 0.0 | 0.0 | 0.00 | 0.03 | 0.01 | 100 | 1004.3 |
| 20260506093519 | 49 | 209 | 0.0 | 0.0 | 0.00 | 0.03 | 0.01 | 100 | 1004.2 |
| 20260506093247 | 49 | 209 | 0.0 | 0.0 | 0.00 | 0.03 | 0.01 | 100 | 1004.2 |
| 20260506092517 | 49 | 210 | 0.0 | 0.0 | 0.00 | 0.03 | 0.01 | 100 | 1004.3 |
| 20260506092017 | 49 | 210 | 0.0 | 0.0 | 0.00 | 0.03 | 0.01 | 100 | 1004.4 |
| 20260506091517 | 49 | 197 | 0.0 | 0.0 | 0.00 | 0.03 | 0.01 | 100 | 1004.4 |
| 20260506091016 | 50 | 197 | 0.0 | 0.0 | 0.00 | 0.03 | 0.01 | 100 | 1004.1 |
| 20260506090517 | 50 | 198 | 0.0 | 0.0 | 0.00 | 0.03 | 0.01 | 100 | 1004.3 |
| 20260506090017 | 50 | 199 | 0.0 | 0.0 | 0.00 | 0.03 | 0.01 | 100 | 1004.4 |
| 20260506085522 | 50 | 199 | 0.0 | 0.0 | 0.00 | 0.03 | 0.01 | 100 | 1004.2 |
| 20260506085517 | 50 | 199 | 0.0 | 0.0 | 0.00 | 0.03 | 0.01 | 100 | 1004.4 |
| 20260506084747 | 50 | 199 | 0.0 | 0.0 | 0.00 | 0.03 | 0.01 | 100 | 1004.1 |
| 20260506084017 | 50 | 199 | 0.0 | 0.0 | 0.00 | 0.03 | 0.01 | 100 | 1004.4 |
| 20260506083516 | 50 | 199 | 0.0 | 0.0 | 0.00 | 0.03 | 0.01 | 100 | 1004.4 |
| 20260506083017 | 50 | 199 | 0.0 | 0.0 | 0.00 | 0.03 | 0.01 | 100 | 1004.6 |
| 20260506082516 | 51 | 209 | 0.0 | 0.0 | 0.00 | 0.03 | 0.01 | 100 | 1004.5 |
| 20260506082017 | 51 | 209 | 0.0 | 0.0 | 0.00 | 0.03 | 0.01 | 100 | 1004.5 |
| 20260506081517 | 51 | 162 | 0.0 | 0.0 | 0.00 | 0.03 | 0.01 | 100 | 1004.5 |
| 20260506081015 | 50 | 162 | 0.0 | 0.0 | 0.00 | 0.03 | 0.01 | 100 | 1004.6 |
| 20260506080516 | 51 | 208 | 0.0 | 0.0 | 0.00 | 0.03 | 0.01 | 100 | 1004.6 |
| 20260506073512 | 51 | 208 | 0.0 | 0.0 | 0.00 | 0.03 | 0.01 | 100 | 1004.8 |
| 20260506073011 | 52 | 208 | 0.0 | 0.0 | 0.00 | 0.03 | 0.01 | 100 | 1004.8 |
| 20260506072511 | 52 | 208 | 0.0 | 0.0 | 0.00 | 0.03 | 0.01 | 100 | 1004.8 |
| 20260506072011 | 52 | 208 | 0.0 | 0.0 | 0.00 | 0.03 | 0.01 | 100 | 1004.9 |
| 20260506071508 | 52 | 208 | 0.0 | 0.0 | 0.00 | 0.03 | 0.01 | 100 | 1004.9 |
| 20260506071009 | 52 | 201 | 0.0 | 0.0 | 0.00 | 0.03 | 0.01 | 100 | 1004.9 |
| 20260506070509 | 52 | 201 | 0.0 | 0.0 | 0.00 | 0.03 | 0.01 | 100 | 1004.8 |